Location: Unspecified
(0.0000°N, 0.0000°E)
Time: 13:27:06
(UTC+00:00)

S-56A Canister/Altair - Pass Details

Date: 02 June 2024
Orbit: 637 x 2489 km, 38.9° (Epoch: 17 June)

Event Time Altitude Azimuth Distance (km) Brightness Sun altitude
Rises 09:26:52 0° 332° (NNW) 4,828 11.7 47.0°
Reaches altitude 10° 09:31:40 10° 348° (NNW) 3,448 11.2 48.0°
Maximum altitude 09:37:07 19° 29° (NNE) 2,395 11.1 49.1°
Drops below altitude 10° 09:41:26 10° 73° (ENE) 2,636 11.1 50.0°
Sets 09:44:27 0° 92° (E) 3,352 11.3 50.6°
